TIME,DELAY(SENSOR),PRES,OXYGEN,RAWTEMP,T(OPTODE),TCPHASE,FLUOR,BETA(BETA700),BETA(BETA412),BETA(BETA440),CDOM,C(CSC),ED(ED411.90),ED(ED443.80),ED(ED489.40),ED(ED554.70),LU(LU412.20),LU(LU443.80),LU(LU489.40),LU(LU555.00),COMP,TILTX,TILTY,CHECK
1347486168,5802,898.4299926757812000,168.7555999755859400,430.5372009277344000,10.0397300720214840,39.3783416748046900,51,105,97,82,74,15209,2147449856,2147790573,2147579328,2147816694,2147305929,2147456576,2147749449,2148268955,1106,6,14,16313
1347489764,5805,1135.0000000000000000,193.7808074951172000,502.2149047851562500,7.8107819557189940,38.8939094543457000,51,107,99,82,74,15181,2147438994,2147794925,2147581376,2147831149,2147306230,2147453184,2147757558,2148276114,1585,6,14,54849
1347493364,5804,13.8000001907348630,207.5861053466797000,518.5576171875000000,7.2980418205261230,38.3331298828125000,52,112,100,81,75,15176,2147438107,2147797220,2147584868,2147830171,2147301924,2147445129,2147762934,2148279972,849,6,14,34101
1347496964,5805,10.6999998092651370,209.6184997558593800,519.2042236328125000,7.2777190208435060,38.2246513366699200,51,105,99,83,76,15175,2147435858,2147798765,2147585426,2147832073,2147304777,2147451236,2147758052,2148281161,2831,6,15,59001
1347500564,5807,10.8999996185302730,209.2286987304687500,520.3413696289062000,7.2419629096984860,38.2677612304687500,51,105,100,82,75,15174,2147436690,2147796708,2147586550,2147831643,2147304045,2147449782,2147763684,2148280896,172,6,14,22344
1347504164,5803,14.8999996185302730,208.4714050292968800,518.2261962890625000,7.3084602355957030,38.2745399475097660,51,110,99,83,75,15176,2147432329,2147793517,2147586011,2147829732,2147305252,2147451318,2147762925,2148280192,2835,6,15,47363
1347507764,5804,14.8000001907348630,209.0426940917968800,519.0266113281250000,7.2833018302917480,38.2549781799316400,51,105,100,81,76,15168,2147438829,2147797312,2147585426,2147830582,2147306486,2147450669,2147762358,2148279168,3073,6,15,11946
1347511364,5802,14.6999998092651370,208.6262054443359400,518.5175781250000000,7.2993011474609375,38.2708015441894500,51,105,100,82,74,15165,2147439616,2147797750,2147583332,2147830555,2147304868,2147449965,2147761206,2148281508,3265,6,14,13887
1347514964,5803,10.1999998092651370,203.6891937255859400,512.4865722656250000,7.4887328147888180,38.4588088989257800,51,108,100,83,76,15166,2147436178,2147794422,2147584448,2147832822,2147307638,2147450413,2147758116,2148278500,331,6,14,45321
1347518564,5806,12.8000001907348630,203.7846069335937500,512.8366699218750000,7.4777431488037110,38.4598503112793000,50,106,99,83,75,15164,2147437385,2147799606,2147583890,2147829586,2147304832,2147449398,2147762724,2148276653,114,6,14,25788
1347522164,5803,12.1999998092651370,204.0520935058593800,513.2141723632812000,7.4658951759338380,38.4504508972168000,51,105,99,82,74,15165,2147440009,2147797979,2147584566,2147826377,2147304960,2147454043,2147761188,2148277120,151,6,14,6140
1347525764,5800,12.3999996185302730,203.6284942626953000,514.3884277343750000,7.4290280342102050,38.4963684082031250,51,107,99,82,75,15165,2147436598,2147792265,2147585837,2147827520,2147305417,2147446628,2147764708,2148277796,542,6,14,24787
1347529364,5805,10.5000000000000000,203.9084014892578000,513.2758178710938000,7.4639611244201660,38.4600410461425800,50,109,99,180,75,15163,2147435318,2147797037,2147586166,2147826733,2147304310,2147448347,2147761709,2148281316,416,6,14,18589
1347532964,5801,1238.0000000000000000,205.0697021484375000,514.5982055664062000,7.4224381446838380,38.4132690429687500,51,109,99,82,74,15169,2147437229,2147794358,2147585133,2147829238,2147303104,2147455314,2147765440,2148278345,2984,6,14,12744
1347536564,5806,12.8000001907348630,204.1669006347656200,513.3660278320312000,7.4611268043518070,38.4458312988281250,52,107,103,82,75,15172,2147434660,2147793316,2147582153,2147830326,2147304064,2147448713,2147763044,2148280950,534,6,14,56300
1347540164,5805,12.6000003814697270,203.9147949218750000,513.1511230468750000,7.4678750038146970,38.4575119018554700,50,105,100,83,75,15169,2147439460,2147796187,2147583862,2147830409,2147306861,2147451245,2147765403,2148279926,704,6,14,48032
1347543764,5801,13.0000000000000000,202.5397033691406200,513.1892089843750000,7.4666781425476070,38.5411186218261700,51,105,98,83,74,15168,2147438528,2147793837,2147586496,2147830089,2147304000,2147452388,2147760950,2148279780,3141,6,14,26985
1347547364,5801,12.1999998092651370,201.8972015380859400,513.2216186523438000,7.4656620025634770,38.5811500549316400,51,104,99,80,75,15167,2147434752,2147792950,2147588251,2147828544,2147302793,2147454326,2147762139,2148280658,3284,6,14,1552
1347550964,5803,10.5000000000000000,202.8872985839843800,513.2495727539062000,7.4647841453552250,38.5209617614746100,51,106,100,81,74,15139,2147435108,2147794258,2147584210,2147830628,2147304118,2147452452,2147763428,2148278281,30,6,14,23631
1347554564,5805,13.6000003814697270,201.8164062500000000,513.0200805664062000,7.4719882011413570,38.5824317932128900,51,107,99,82,73,15128,2147435730,2147792118,2147585682,2147831195,2147305444,2147450651,2147763958,2148280868,3593,6,15,39209
1347558164,5805,13.8000001907348630,202.1239929199218800,512.7540283203125000,7.4803390502929690,38.5586318969726560,50,106,99,82,74,15137,2147437705,2147797476,2147586304,2147828800,2147306148,2147451108,2147761298,2148278747,397,6,14,56043
1347561764,5806,11.6999998092651370,195.6743927001953000,503.5557861328125000,7.7687830924987790,38.7966804504394500,52,105,98,82,75,15138,2147437531,2147793261,2147585142,2147829184,2147305545,2147451382,2147763629,2148278400,345,6,14,54813
1347565364,5804,1054.0000000000000000,195.1524047851562500,503.7591857910156000,7.7624111175537110,38.8336105346679700,51,103,99,84,74,15139,2147440100,2147790464,2147583890,2147828050,2147307501,2147449042,2147761993,2148281024,228,6,14,35539
1347568964,5802,10.3000001907348630,194.6748962402343800,504.9298095703125000,7.7257328033447270,38.8838691711425800,51,104,102,82,75,15138,2147438509,2147795922,2147584868,2147827072,2147303716,2147452379,2147759222,2148277430,3419,6,14,42549
1347572564,5803,10.1000003814697270,194.4987030029297000,506.2320861816406000,7.6849169731140140,38.9187507629394500,51,107,100,81,75,15139,2147442688,2147794285,2147586459,2147829485,2147303954,2147453632,2147760173,2148277275,3552,6,14,56472
1347576164,5806,11.3000001907348630,197.8851928710937500,507.5692138671875000,7.6429982185363770,38.7289810180664060,51,105,98,83,75,15131,2147437906,2147794459,2147585810,2147829312,2147305261,2147449993,2147761097,2148280027,568,6,14,2630
1347579764,5805,10.3000001907348630,198.2893066406250000,507.7402038574219000,7.6376390457153320,38.7070693969726560,51,105,99,82,75,15134,2147435721,2147793545,2147583753,2147829120,2147306998,2147452781,2147759552,2148280356,496,6,14,47779
1347583364,5805,11.6000003814697270,198.2747955322265600,506.8293151855469000,7.6661977767944340,38.6914710998535160,52,103,100,82,74,15134,2147440704,2147794788,2147585142,2147830198,2147304850,2147453046,2147759049,2148277805,511,6,14,2263
1347586964,5806,11.3999996185302730,195.5919952392578000,504.2114868164062500,7.7482390403747560,38.8142395019531250,50,105,98,82,74,15135,2147442322,2147794066,2147583817,2147826834,2147306761,2147450194,2147756662,2148276169,3570,6,14,36562
1347590564,5802,1071.0000000000000000,194.5431060791015600,504.7773132324219000,7.7305102348327640,38.8893508911132800,51,107,99,82,74,15130,2147437449,2147799305,2147588662,2147826331,2147305938,2147449819,2147760027,2148282157,3311,6,14,33051
1347594164,5805,11.8999996185302730,195.9055023193359400,505.8693847656250000,7.6962862014770510,38.8230590820312500,51,104,101,82,75,15135,2147439725,2147795529,2147584960,2147826578,2147304402,2147454656,2147758893,2148277129,3504,6,14,53397
1347597764,5801,11.1000003814697270,195.6141052246093800,505.7020874023437500,7.7015290260314940,38.8384513854980500,51,106,99,81,75,15127,2147441115,2147792557,2147589302,2147827501,2147302866,2147453476,2147760795,2148278957,3378,6,14,17089
1347601364,5808,10.8999996185302730,195.5287017822265600,506.8160095214844000,7.6666140556335450,38.8633003234863300,51,104,99,83,75,15133,2147439881,2147792941,2147584585,2147828260,2147304438,2147450258,2147757970,2148277659,79,6,14,31930
1347604964,5805,10.1999998092651370,196.8910064697265600,505.7673950195312500,7.6994819641113280,38.7593688964843750,51,104,98,86,74,15135,2147438784,2147795968,2147584685,2147831241,2147304987,2147454217,2147756973,2148277165,141,6,14,53589
1347608564,5800,11.1999998092651370,194.8845977783203000,505.4971923828125000,7.7079520225524900,38.8808708190918000,50,104,100,82,75,15131,2147441417,2147793782,2147586998,2147828388,2147304109,2147449718,2147753499,2148277019,264,6,14,22970
1347612164,5804,10.6000003814697270,195.6082000732422000,507.2558898925781000,7.6528220176696780,38.8666801452636700,50,104,98,83,75,15134,2147441307,2147794633,2147586230,2147829065,2147307428,2147450642,2147755392,2148278656,235,6,14,14365
1347615764,5806,10.3999996185302730,195.7763977050781200,508.2557067871094000,7.6214728355407715,38.8732795715332000,51,106,97,82,75,15126,2147442185,2147793554,2147582262,2147826176,2147307163,2147454628,2147753920,2148275840,31,6,14,62623
1347619364,5805,11.5000000000000000,197.6829071044922000,507.3063964843750000,7.6512408256530760,38.7366294860839840,51,107,100,82,75,15130,2147438061,2147795629,2147584658,2147827172,2147306587,2147451254,2147759826,2148279369,3372,6,14,38038
1347622964,5806,1060.0000000000000000,196.1842956542968800,507.3952026367187500,7.6484570503234860,38.8318710327148440,53,105,99,82,74,15133,2147440064,2147792996,2147585993,2147826404,2147305078,2147455305,2147759296,2148278774,646,6,14,54876
1347626564,5806,11.1999998092651370,196.6927947998047000,506.4075012207031000,7.6794199943542480,38.7833900451660160,51,106,99,83,75,15131,2147440539,2147795099,2147584155,2147827593,2147306825,2147452662,2147753755,2148279652,241,6,14,41539
1347629456,5806,10.6999998092651370,196.1972045898437500,506.2991027832031000,7.6828179359436035,38.8125686645507800,51,104,98,81,74,15129,2147442331,2147794130,2147585563,2147829595,2147304338,2147449755,2147754496,2148278848,136,6,14,62946
